sat.trackr.live / text

‹ back to catalog

CORVUS BC4

NORAD 43767 · 2018-099K

PAYLOAD ACTIVE UNKNOWN

§ Identity

Operator
Country
US
Launch date
2018-12-03
Launch site
AFWTR
Launch vehicle
Mass (kg)
RCS (m²)

Purposes: tech_demo

External: N2YO · Heavens-Above · Gunter

§ Orbital elements

Epoch: 2026-09-19T20:09:08.446176Z

Period
95.17 min
Inclination
97.3985°
Eccentricity
0.0009156
Mean motion
15.13125543 rev/d
Perigee alt
520.4 km
Apogee alt
533.0 km
Semi-major
6,904.8 km
B*
1.4030e-4
RAAN
303.0459°
Arg perigee
43.1702°
Mean anomaly
317.0246°
Rev number
42,671

§ Raw data

CORVUS BC41 43767U 18099K   26262.83968109  .00002424  00000+0  14030-3 0  99982 43767  97.3985 303.0459 0009156  43.1702 317.0246 15.13125543426715

JSON: /api/v1/satellites/43767 · /tle

For live sub-satellite position, see the globe view (requires WebGL).

§ Visibility from observer

Set your observer location to see the next 7 days of passes ≥ 10°. The values pass through the URL so the page stays shareable.

No JS? Fill the form by hand. The geolocation button needs JavaScript.

§ Radio — SatNOGS DB

ModeDescriptionDownlinkUplink
FM Mode U - Unknown 400.175 MHz

1 transmitter · refreshed weekly from db.satnogs.org